FW5711 Weather Reports


time (UTC)temp
C
wind
direction
speed
KPH
gust
KPH
rain 1hr
cm
rain 24hr
cm
rain mn
cm
humidity
%
barometer
mb
20260503013035 19 269 0.0 4.8 0.00 0.00 0.00 31 1015.0
20260503011540 20 245 1.6 4.8 0.00 0.00 0.00 30 1015.4
20260503010039 18 243 1.6 4.8 0.00 0.00 0.00 31 1015.5
20260503004537 18 243 1.6 4.8 0.00 0.00 0.00 31 1015.5
20260503003046 18 243 4.8 11.3 0.00 0.00 0.00 31 1015.8
20260503001540 19 248 6.4 12.9 0.00 0.00 0.00 31 1015.8
20260503000045 20 212 3.2 16.1 0.00 0.00 0.00 30 1015.7
20260502234552 20 323 4.8 8.0 0.00 0.00 0.00 30 1015.9
20260502233039 20 186 4.8 14.5 0.00 0.00 0.00 31 1016.1
20260502231538 19 69 8.0 17.7 0.00 0.00 0.00 32 1016.3
20260502230038 19 24 6.4 12.9 0.00 0.00 0.00 32 1016.5
20260502224537 19 46 9.7 16.1 0.00 0.00 0.00 32 1016.7
20260502223042 19 0 1.6 8.0 0.00 0.00 0.00 31 1017.0
20260502221539 20 0 4.8 12.9 0.00 0.00 0.00 31 1017.2
20260502220040 19 235 3.2 14.5 0.00 0.00 0.00 32 1017.4
20260502214552 20 319 8.0 14.5 0.00 0.00 0.00 32 1017.7
20260502213047 19 302 6.4 19.3 0.00 0.00 0.00 33 1017.9
20260502211550 19 293 8.0 19.3 0.00 0.00 0.00 34 1017.9
20260502210041 18 24 8.0 14.5 0.00 0.00 0.00 35 1018.0
20260502204541 17 57 8.0 17.7 0.00 0.00 0.00 36 1018.2
20260502203103 18 54 4.8 17.7 0.00 0.00 0.00 36 1018.3
20260502201542 17 9 8.0 19.3 0.00 0.00 0.00 37 1018.4
20260502200044 17 352 14.5 22.5 0.00 0.00 0.00 36 1018.7
20260502194536 17 352 8.0 24.1 0.00 0.00 0.00 37 1018.7
20260502193040 17 5 14.5 22.5 0.00 0.00 0.00 37 1018.9
20260502191544 17 352 9.7 20.9 0.00 0.00 0.00 36 1019.1
20260502190037 17 327 6.4 16.1 0.00 0.00 0.00 36 1019.2
20260502184537 17 91 4.8 17.7 0.00 0.00 0.00 36 1019.3
20260502183038 18 331 6.4 20.9 0.00 0.00 0.00 34 1019.4
20260502181536 17 360 8.0 19.3 0.00 0.00 0.00 36 1019.5
20260502163047 16 26 16.1 29.0 0.00 0.00 0.00 38 1019.8
20260502161554 16 47 9.7 27.4 0.00 0.00 0.00 39 1019.8
20260502151541 15 88 12.9 20.9 0.00 0.00 0.00 40 1019.5
20260502123100 8 5 8.0 12.9 0.00 0.00 0.00 54 1018.3
20260502121541 8 5 8.0 16.1 0.00 0.00 0.00 54 1018.2
20260502114537 10 10 11.3 20.9 0.00 0.00 0.00 49 1017.8
20260502113044 9 350 6.4 14.5 0.00 0.00 0.00 49 1017.5
20260502111543 9 9 6.4 12.9 0.00 0.00 0.00 47 1017.3
20260502110036 10 352 1.6 20.9 0.00 0.00 0.00 45 1017.0
20260502104541 8 187 0.0 6.4 0.00 0.00 0.00 44 1016.8
20260502103039 8 348 3.2 8.0 0.00 0.00 0.00 46 1016.5
20260502101540 7 360 4.8 11.3 0.00 0.00 0.00 49 1016.3
20260502070040 7 273 1.6 6.4 0.00 0.00 0.00 42 1015.4
20260502064547 7 286 1.6 6.4 0.00 0.00 0.00 43 1015.2
20260502063043 5 265 3.2 6.4 0.00 0.00 0.00 45 1015.2
20260502061538 6 251 3.2 6.4 0.00 0.00 0.00 41 1015.1
20260502060105 8 0 0.0 4.8 0.00 0.00 0.00 35 1015.0
20260502054538 8 284 0.0 3.2 0.00 0.00 0.00 35 1015.0
20260502053038 8 284 1.6 9.7 0.00 0.00 0.00 34 1014.7
20260502051537 9 276 3.2 6.4 0.00 0.00 0.00 32 1014.7
20260502050042 10 259 3.2 6.4 0.00 0.00 0.00 30 1014.5
20260502044543 11 264 4.8 11.3 0.00 0.00 0.00 29 1014.6
20260502043039 11 270 3.2 11.3 0.00 0.00 0.00 29 1014.6
20260502041537 11 264 4.8 9.7 0.00 0.00 0.00 27 1014.6
20260502040038 12 275 3.2 11.3 0.00 0.00 0.00 26 1014.6
20260502034537 12 268 6.4 9.7 0.00 0.00 0.00 25 1014.4
20260502033037 15 267 1.6 9.7 0.00 0.00 0.00 23 1014.3
20260502031540 15 286 3.2 9.7 0.00 0.00 0.00 23 1014.2
20260502030045 15 280 3.2 9.7 0.00 0.00 0.00 24 1014.0
20260502024539 15 269 4.8 11.3 0.00 0.00 0.00 24 1013.8
20260502023040 16 249 4.8 6.4 0.00 0.00 0.00 22 1013.9
20260502021538 18 250 3.2 6.4 0.00 0.00 0.00 20 1013.8
20260502020037 18 250 3.2 6.4 0.00 0.00 0.00 20 1013.8
20260502014538 20 250 4.8 8.0 0.00 0.00 0.00 19 1013.8